Regional Weather Roundup
Issued by NWS Cleveland, OH

Home | Current Version | Previous Version | Graphics & Text | Print | Product List | Glossary On
Versions: 1 2 3 4 5 6 7 8 9 10 11 12 13 14 15 16 17 18 19 20 21 22 23 24 25 26 27 28 29 30 31 32 33 34 35 36 37 38 39 40 41 42 43 44 45 46 47 48 49 50
000
ASUS41 KCLE 290910
RWRCLE
OHIO REGIONAL WEATHER ROUNDUP
NATIONAL WEATHER SERVICE CLEVELAND, OH
500 AM EDT SAT APR 29 2017

NOTE: "FAIR" INDICATES FEW OR NO CLOUDS BELOW 12,000 FEET WITH NO
SIGNIFICANT WEATHER AND/OR OBSTRUCTIONS TO VISIBILITY.

OHZ001>008-015>018-024>027-034-035-043-044-291000-
   NORTHWEST OHIO

CITY           SKY/WX    TMP DP  RH WIND       PRES   REMARKS
DEFIANCE       CLOUDY    53  51  93 NE5       29.97R
FINDLAY        CLOUDY    56  52  86 E8        29.95S
TOLEDO EXPRESS CLOUDY    53  53 100 E7        29.97S FOG
TOLEDO EXEC    CLOUDY    55  55 100 NE5       29.98S FOG
LIMA           CLOUDY    56  56 100 N6        29.95S
$$

OHZ009>014-019>023-028>033-038-089-291000-
   NORTHEAST OHIO

CITY           SKY/WX    TMP DP  RH WIND       PRES   REMARKS
CLE-HOPKINS    CLOUDY    57  53  86 N3        30.00S
CLE-LAKEFRONT  CLOUDY    56  53  90 NE3       29.97S
CUY CO. ARPT   NOT AVBL
LORAIN-ELYRIA  CLOUDY    54  52  93 NE5       29.98F FOG
ASHTABULA      CLOUDY    55  55 100 CALM      30.00R
AKRON-CANTON   CLOUDY    57  52  83 CALM      29.97R
WOOSTER        CLOUDY    54  53  97 CALM      29.97S
MANSFIELD      CLOUDY    56  54  93 CALM      29.98R
YOUNGSTOWN     CLOUDY    54  52  93 CALM      30.00R
$$

OHZ042-051>053-060>062-070>072-077>081-291000-
  SOUTHWEST OHIO

CITY           SKY/WX    TMP DP  RH WIND       PRES   REMARKS
CINC-COVINGTON LGT RAIN  64  63  96 S14       29.91F
CINC-LUNKEN    LGT RAIN  66  65  96 S8        29.94F
HAMILTON       LGT RAIN  65  64  97 SE5       29.91F
DAYTON         TSTM      60  60 100 S10       29.95S FOG
WRIGHT-PAT AFB HVY RAIN  59  59 100 SW5       29.96R FOG
DAYTON GENERAL LGT RAIN  63  62  97 S9        29.93F
WILMINGTON     LGT RAIN  63  63 100 S9        29.96F
$$

OHZ036-037-039>041-045>050-054>059-063>069-073>076-082>088-291000-
  CENTRAL AND SOUTHEAST OHIO

CITY           SKY/WX    TMP DP  RH WIND       PRES   REMARKS
COLUMBUS       LGT RAIN  58  58 100 NE3       29.97S
OSU AIRPORT    CLOUDY    57  57 100 SE6       29.96S
BOLTON FIELD   RAIN      58  57  99 E5        29.97S
RICKENBACK AFB LGT RAIN  58  58 100 NE3       29.96S
NEWARK         LGT RAIN  58  57  97 CALM      29.97R
MARION         LGT RAIN  57  55  93 S3        29.97S
LANCASTER      LGT RAIN  60  58  92 E5        29.96F
ZANESVILLE     LGT RAIN  59  57  93 SE5       30.00R FOG
NEW PHILLY     NOT AVBL
$$




USA.gov is the U.S. government's official web portal to all federal, state and local government web resources and services.